Powrót do katalogu

SL-8 DEB *

AktywnyLEO
NORAD 14865·DEBRIS·🇷🇺 Russia

Wystrzelony Sep 30, 1975 z Plesetsk Cosmodrome

Loading…

Następne Przeloty (najbliższe 24 godziny)

TLE

ŚwieżeSource: Space-Track

Epoka: Sep 14, 2026, 10:22 UTC

1 14865U 75094E   26257.43217435  .00003155  00000-0  37586-3 0  9996
2 14865  74.0208   4.2283 0001163 336.2666 140.9946 14.84792114761793

Śledź SL-8 DEB * w czasie rzeczywistym z AllMySat

Download on the App Store